www.pogodaiklimat.ru

Погода и климат >> Архив погоды >> Россия >> Еврейская автономная область >> Ленинское


ПОГОДА в Ленинское

  • Прогноз погоды в Ленинское
  • Монитор погоды в Ленинское

АРХИВ ПОГОДЫ в Ленинское

Время (UTC), дата Ветер
(напр.,м/с)
 
Видим.   Явления Облачность Т
(С)
Тd
(С)
f
(%)
Тe
(С)
Тes
(С)
Комфортность P
(гПа)
Po
(гПа)
Тmin
(С)
Tmax
(С)
R
(мм)
R24
(мм)
S
(см)
18 16.07 Ю 2 1500 м 8/0 <50 м
[As trans Ci ing]
+30.9 +18.0 91 +22 +22 комфорт 1008.1 1001.7
21 16.07 Ю 3 50 км 9/9 600 м
[Cb cap]
+19.2 +17.5 90 +21 +21 комфорт 1007.4 1001.0 +18.8
00 17.07 ЮВ 3 10 км 10/10 600 м
[Cb cap]
+20.0 +18.2 89 +23 +23 комфорт 1006.7 1000.3
03 17.07 Ю 4 10 км слаб. ливневой дождь 10/10 600 м
[Cb cap]
+19.5 +18.6 95 +22 +22 комфорт 1006.1 999.7
06 17.07 Ю 3 10 км в посл. час ливневой дождь 10/10 600 м
[Cb cap]
+20.3 +19.3 94 +24 +24 комфорт 1004.6 998.3
09 17.07 Ю 3 10 км {ливн. осадки} 10/10 600 м
[Cb cap]
+20.3 +19.2 93 +24 +24 комфорт 1003.3 996.9 +20.6 7
12 17.07 Ю 3 50 км в посл. час ливневой дождь 9/9 600 м
[Cb cap]
+20.5 +19.7 95 +25 +25 комфорт 1003.6 997.3
15 17.07 З 1 50 км 10/8 600 м
[Cb cap Ci fib]
+18.8 +18.2 96 +21 +21 комфорт 1003.6 997.2
18 17.07 З 1 50 км 10/6 600 м
[Cb cap Ac trans Ci fib]
+17.9 +17.4 97 +19 +19 1003.3 996.9
21 17.07 СЗ 1 500 м туман 9/8 600 м
[Cb cap Ac trans Ci fib]
+19.3 +18.9 98 +23 +23 комфорт 1003.6 997.2 +17.7 2
00 18.07 З 2 10 км {туман} 10/10 600 м
[Cb cap]
+21.3 +19.7 91 +26 +26 душно 1003.4 997.0
03 18.07 ЮЗ 3 50 км 9/8 600 м
[Cu med, cong Ci fib]
+24.2 +19.8 76 +29 +32 душно 1003.0 996.7
09 18.07 Ю 1 50 км 10/4 600 м
[Cb cap Ac trans Ci fib]
+24.1 +20.3 79 +30 +30 очень
душно
1001.4 995.1 +27.4
12 18.07 ЮЗ 1 50 км зарница 8/5 600 м
[Cb cap Ci fib]
+22.0 +20.6 92 +28 +28 душно 1002.7 996.4
15 18.07 З 1 50 км местами туман поземный 8/8 600 м
[Cb cap]
+19.6 +19.1 97 +23 +23 комфорт 1003.1 996.7
18 18.07 З 1 50 км {гроза} 10/8 600 м
[Cb cap Ci fib]
+17.6 +17.0 96 +19 +19 1003.2 996.8
21 18.07 СЗ 2 50 км 9/8 600 м
[Cb cap Ci fib]
+19.7 +17.9 89 +23 +23 комфорт 1003.8 997.4 +17.5
00 19.07 З 2 50 км 3/1 600 м
[Cu med, cong Ci fib]
+25.7 +20.0 71 +32 +40 очень
душно
1004.3 998.1
03 19.07 З 2 50 км 4/3 600 м
[Cu med, cong Ci fib]
+27.8 +18.4 57 +33 +45 очень
душно
1004.3 998.1
06 19.07 ЮЗ 3 50 км 4/3 600 м
[Cu med, cong Ci fib]
+28.2 +19.1 58 +34 +40 очень
душно
1004.2 998.0
09 19.07 З 2 50 км 3/0
[Ci fib]
+28.3 +18.6 56 +33 +35 очень
душно
1004.5 998.4 +30.1
12 19.07 Ю 1 50 км 3/0
[Ci fib]
+22.2 +20.2 88 +28 +28 душно 1006.5 1000.2
15 19.07 Ю 1 50 км 6/0
[Ci fib]
+20.8 +20.0 95 +27 +27 душно 1007.1 1000.7
18 19.07 ЮЗ 1 50 км 8/0
[Ci fib]
+18.0 +17.6 98 +19 +19 1007.9 1001.4
21 19.07 В 1 50 км 8/0
[Ci fib]
+20.9 +20.4 97 +27 +28 душно 1008.8 1002.4 +17.7
00 20.07 ЮВ 2 50 км 8/1 600 м
[Cu med, cong Ci fib]
+26.3 +21.3 74 +33 +41 очень
душно
1009.2 1002.9
03 20.07 ЮВ 3 50 км 9/3 600 м
[Cu med, cong Ci fib]
+28.8 +20.4 60 +35 +44 очень
душно
1009.2 1003.0
09 20.07 ЮВ 2 50 км 9/3 600 м
[Sc Ci fib]
+28.6 +19.5 58 +34 +35 очень
душно
1007.6 1001.4 +29.7
12 20.07 В 1 50 км 8/3 600 м
[Cb cap Ci fib]
+23.5 +21.8 90 +30 +30 очень
душно
1007.8 1001.5
15 20.07 ЮВ 2 50 км 10/5 600 м
[Sc Ac trans Ci fib]
+23.7 +21.6 88 +30 +30 очень
душно
1007.7 1001.4
18 20.07 ЮВ 4 н/о н/о +22.9 +20.8 88 +30 +30 очень
душно
1006.9 1000.6
21 20.07 ЮВ 3 10 км 10/10 600 м
[Cb cap]
+22.6 +21.2 92 +30 +30 очень
душно
1007.3 1001.0 +22.1
00 21.07 Ю 5 50 км 9/9 600 м
[Cb cap]
+25.4 +21.6 80 +33 +33 очень
душно
1007.5 1001.2
03 21.07 Ю 4 50 км 9/9 600 м
[Cb cap]
+27.1 +22.2 75 +35 +37 очень
душно
1006.8 1000.6
06 21.07 Ю 4 50 км 9/9 600 м
[Cb cap]
+28.3 +22.0 69 +37 +38 очень
душно
1006.1 1000.0
09 21.07 Ю 3 50 км 8/6 600 м
[Cb cap Ac trans Ci fib]
+28.8 +22.4 68 +38 +38 очень
душно
1005.4 999.2 +29.8
12 21.07 ЮВ 2 50 км 9/9 600 м
[Cb cap]
+26.4 +22.7 80 +35 +35 очень
душно
1006.1 999.8
15 21.07 Ю 3
{11}
50 км 9/9 600 м
[Cb cap]
+23.9 +21.7 88 +31 +31 очень
душно
1005.0 998.7
18 21.07 ЮВ 2 50 км 8/0
[Ac lent Ci fib]
+23.1 +21.8 92 +31 +31 очень
душно
1004.1 997.8
21 21.07 ЮВ 2 50 км 10/9 600 м
[Cb cap Ci fib]
+23.3 +21.6 90 +31 +32 очень
душно
1002.9 996.6 +22.4
00 22.07 В 2 50 км {ливн. осадки} 9/9 600 м
[Cb cap]
+24.7 +20.3 77 +31 +32 очень
душно
1002.0 995.7
03 22.07 ЮВ 3 10 км слаб. ливневой дождь 10/10 600 м
[Cb cap]
+22.5 +21.6 95 +30 +30 очень
душно
1000.8 994.5
09 22.07 Ю 2 10 км в посл. час ливневой дождь 10/10 600 м
[Cb cap]
+21.7 +20.5 93 +27 +27 душно 998.0 991.7 +25.6 5
12 22.07 Ю 2 10 км в посл. час ливневой дождь 10/10 600 м
[Cb cap]
+20.9 +20.3 96 +27 +27 душно 998.3 992.0
21 22.07 Ю 3 10 км 10/10 600 м
[Cb cap]
+21.3 +20.8 97 +27 +27 душно 998.5 992.2 +20.9 0.6
00 23.07 З 2 50 км {ливн. осадки} 8/4 600 м
[Cu Sc Ac trans Ci fib]
+24.6 +20.0 76 +30 +34 очень
душно
998.2 992.0
09 23.07 Ю 2 50 км 9/8 600 м
[Cb cap Ci sp]
+27.2 +21.1 69 +34 +35 очень
душно
997.6 991.4 +29.1 0.1

 

Местоположение метеостанции Ленинское (Еврейская автономная область, Россия): широта 47.95 долгота 132.60 высота над уровнем моря 57 м.

В архиве по умолчанию представлена погода в Ленинское за последнюю неделю. Архивные данные за месяц целиком и за предыдущие месяцы, начиная с января 2011 года, Вы можете получить, выбрав интересующий диапазон дат из раскрывающегося списка и нажав кнопку "Ввод!".


*Определитесь, кто Вы:
робот инопланетянин человек

Внимание! Время в таблицах - всемирное. Для получения местного времени необходимо прибавить поправку, которая равна 10 ч.

Смотрите также архив погоды в соседних городах и на ближайших метеорологических станциях:

Погода в Биджане (Еврейская автономная область, Россия) (54 км)
Погода в Биробиджане (Еврейская автономная область, Россия) (90 км)
Погода в Фуцзине (Хэйлунцзян, Китай) (93 км)
Погода в Смидовиче (Еврейская автономная область, Россия) (115 км)
Погода в Хабаровск Центре (Еврейская автономная область, Россия) (123 км)
Погода в Екатерино-Никольском (Еврейская автономная область, Россия) (129 км)
Погода в Лермонтовке (Хабаровский край, Россия) (156 км)
Погода в Вяземском (Хабаровский край, Россия) (164 км)
Погода в Облучье (Еврейская автономная область, Россия) (166 км)
Погода в Урми (Хабаровский край, Россия) (167 км)

Пояснения к столбцам:

Ветер - указаны скорость ветра в м/с - средняя за 10 мин, порывы в срок и между сроками (в фигурных скобках) и направление, откуда дует ветер: С - северный, СВ - северо-восточный, В - восточный, ЮВ - юго-восточный, Ю - южный, ЮЗ - юго-западный, З - западный, СЗ - северо-западный.
Видимость - горизонтальная дальность видимости в метрах или километрах. При видимости от 1 до 10 км при отсутствии осадков обычно наблюдается дымка, при ухудшении видимости до 1 км и менее - туман. В сухую погоду видимость может ухудшаться дымом, пылью или мглою.
Явления - указаны атмосферные явления, наблюдавшиеся в срок или в последний час перед сроком; фигурными скобками обозначены явления, наблюдавшиеся между сроками (за 1-3 часа до срока); квадратными скобками обозначены град или гололедные отложения с указанием их диаметра в мм.
Облачность - указаны через наклонную черту общая и нижняя облачность в баллах и высота нижней границы облаков в метрах; квадратными скобками обозначены формы облаков: Ci - перистые, Cs - перисто-слоистые, Cc - перисто-кучевые, Ac - высококучевые, As - высокослоистые, Sc - слоисто-кучевые, Ns - слоисто-дождевые, Cu - кучевые, Cb - кучево-дождевые. Подробнее классификацию облаков см. в Атласе облаков (PDF).
T - Температура воздуха - температура, измеренная на высоте 2 м над землей.
Td - Температура точки росы - температура, при понижении до которой содержащийся в воздухе водяной пар достигнет насыщения.
f - Относительная влажность воздуха - влажноcть воздуха, измеренная на высоте 2 м над землей.
Te - Эффективная температура - температура, которую ощущает одетый по сезону человек в тени. Характеристика душности погоды. При расчете учитывается влияние влажности воздуха и скорости ветра на теплоощущения человека.
Tes - Эффективная температура на солнце - температура, которую ощущает человек, с поправкой на солнечный нагрев. Характеристика знойности погоды. Зависит от высоты солнца над горизонтом, облачности и скорости ветра. Ночью, в пасмурную погоду, а также при ветре 12 м/с и более поправка равна нулю.
P - Атмосферное давление - приведенное к уровню моря атмосферное давление.
Po - Атмосферное давление - измеренное на уровне метеостанции атмосферное давление.
Tmin - Минимальная температура - минимум температуры воздуха на высоте 2 м над землей.
Tmax - Максимальная температура - максимум температуры воздуха на высоте 2 м над землей.
R - Количество осадков - Количество выпавших осадков за период времени, мм. При наведении курсора мыши на число - период времени, за который выпало указанное количество осадков.
R24 - Количество осадков - Количество выпавших осадков за 24 часа, мм.
S - Снежный покров - Высота снежного покрова, см. При наведении курсора мыши на число - состояние снежного покрова и степень покрытия местности в баллах.